{"data":{"norad_id":67602,"intl_designator":"2026-018P","name":"STARLINK-36631","alt_names":[],"object_type":"PAYLOAD","status":"ACTIVE","operator":null,"country":"US","launch_date":"2026-01-29","launch_site_code":"AFWTR","launch_vehicle":null,"mission":null,"orbit_class":"UNKNOWN","rcs_meters":null,"size_class":null,"mass_kg":null,"dimensions":null,"purposes":["comms"],"wikipedia_slug":null,"has_3d_model":false,"image_url":null,"decayed_at":null,"tle_current":{"epoch":"2026-05-25T02:59:04.824096Z","epoch_age_seconds":64343,"freshness":"FRESH","line1":"1 67602U 26018P   26145.12436139  .00015663  00000+0  48631-3 0  9990","line2":"2 67602  97.2851 210.3410 0000436 158.4416 201.6845 15.33456308 19057","mean_motion":15.33456308,"eccentricity":4.36e-5,"inclination_deg":97.2851,"raan_deg":210.341,"arg_perigee_deg":158.4416,"mean_anomaly_deg":201.6845,"bstar":0.00048631,"rev_number":1905,"period_min":93.905512174528,"perigee_km":465.21114704403,"apogee_km":465.80791302145,"semimajor_km":6843.6465300327,"source":"CELESTRAK","updated_at":"2026-05-25T13:38:21.621882Z"}}}